QPF
0.00 0.01 0.01 0.01 0.00 0.01 0.01 0.01 0.00 0.00 0.00 0.00 0.00 0.00 0.00 0.00 0.00 0.00 0.01 0.01 0.01 0.00 0.00 0.01 0.01 0.00 0.01 0.03 0.03 0.02 0.04 0.05 0.06 0.09 0.11 0.13 0.09 0.06 0.03 0.02 0.02 0.01 0.03 0.04
0.01 0.01 0.00 0.00 0.00 0.00 0.00 0.01 0.00 0.00 0.00 0.00 0.00 0.00 0.00 0.00 0.00 0.00 0.01 0.01 0.01 0.01 0.00 0.00 0.01 0.02 0.01 0.01 0.02 0.03 0.04 0.05 0.05 0.07 0.08 0.08 0.07 0.06 0.05 0.03 0.02 0.01 0.02 0.03
0.01 0.00 0.00 0.00 0.00 0.00 0.00 0.00 0.00 0.00 0.00 0.00 0.00 0.00 0.00 0.01 0.00 0.00 0.01 0.01 0.01 0.01 0.01 0.01 0.01 0.01 0.01 0.01 0.01 0.03 0.04 0.05 0.04 0.04 0.06 0.08 0.08 0.07 0.06 0.05 0.03 0.02 0.02 0.02
0.00 0.00 0.00 0.00 0.00 0.00 0.00 0.00 0.00 0.00 0.00 0.01 0.02 0.03 0.02 0.05 0.01 0.00 0.01 0.01 0.01 0.01 0.01 0.02 0.04 0.03 0.01 0.01 0.02 0.02 0.03 0.04 0.04 0.04 0.05 0.07 0.07 0.07 0.06 0.05 0.05 0.03 0.02 0.02
0.00 0.00 0.00 0.00 0.00 0.00 0.00 0.00 0.00 0.00 0.00 0.01 0.04 0.04 0.03 0.02 0.01 0.01 0.01 0.01 0.00 0.00 0.00 0.02 0.03 0.04 0.02 0.01 0.01 0.01 0.02 0.05 0.06 0.05 0.04 0.05 0.06 0.05 0.04 0.04 0.05 0.04 0.03 0.03
0.00 0.00 0.00 0.00 0.00 0.00 0.00 0.00 0.00 0.00 0.00 0.01 0.02 0.01 0.03 0.03 0.05 0.02 0.00 0.00 0.00 0.00 0.00 0.01 0.01 0.01 0.01 0.02 0.02 0.02 0.02 0.03 0.05 0.05 0.04 0.04 0.05 0.05 0.05 0.07 0.07 0.06 0.04 0.05
0.00 0.00 0.00 0.00 0.00 0.00 0.00 0.01 0.01 0.01 0.01 0.01 0.02 0.02 0.04 0.03 0.01 0.00 0.02 0.02 0.00 0.00 0.00 0.00 0.00 0.00 0.00 0.01 0.02 0.03 0.03 0.03 0.03 0.03 0.03 0.03 0.04 0.05 0.07 0.07 0.07 0.07 0.04 0.04
0.01 0.01 0.00 0.00 0.00 0.00 0.00 0.00 0.01 0.02 0.02 0.01 0.02 0.03 0.01 0.01 0.00 0.00 0.00 0.01 0.00 0.00 0.00 0.00 0.00 0.00 0.00 0.00 0.01 0.02 0.03 0.04 0.03 0.02 0.02 0.02 0.02 0.04 0.06 0.08 0.06 0.06 0.06 0.04
0.00 0.01 0.00 0.00 0.00 0.00 0.00 0.00 0.00 0.01 0.02 0.01 0.02 0.02 0.01 0.00 0.00 0.00 0.00 0.00 0.00 0.00 0.00 0.00 0.00 0.00 0.00 0.00 0.01 0.01 0.01 0.02 0.02 0.02 0.03 0.02 0.03 0.04 0.05 0.06 0.05 0.05 0.05 0.05
0.00 0.01 0.01 0.00 0.00 0.00 0.00 0.00 0.00 0.01 0.01 0.01 0.02 0.02 0.01 0.00 0.01 0.01 0.00 0.00 0.00 0.00 0.00 0.00 0.01 0.01 0.00 0.00 0.01 0.01 0.01 0.01 0.01 0.01 0.02 0.03 0.04 0.05 0.06 0.05 0.05 0.06 0.06 0.05
0.00 0.00 0.01 0.01 0.01 0.01 0.00 0.00 0.00 0.01 0.01 0.01 0.02 0.03 0.02 0.02 0.01 0.01 0.00 0.01 0.01 0.00 0.00 0.01 0.01 0.00 0.00 0.01 0.00 0.01 0.01 0.01 0.01 0.01 0.02 0.03 0.04 0.04 0.04 0.04 0.03 0.04 0.04 0.04
0.00 0.00 0.01 0.01 0.02 0.01 0.00 0.00 0.00 0.01 0.01 0.00 0.02 0.04 0.02 0.03 0.02 0.00 0.00 0.01 0.00 0.00 0.01 0.02 0.01 0.01 0.01 0.01 0.01 0.01 0.01 0.01 0.01 0.01 0.01 0.02 0.02 0.02 0.03 0.03 0.02 0.04 0.04 0.04
0.00 0.00 0.01 0.01 0.01 0.01 0.00 0.01 0.00 0.00 0.00 0.00 0.01 0.05 0.02 0.01 0.01 0.01 0.00 0.00 0.00 0.00 0.01 0.02 0.02 0.02 0.02 0.03 0.03 0.03 0.02 0.01 0.01 0.01 0.02 0.02 0.03 0.03 0.03 0.03 0.03 0.03 0.04 0.04
0.00 0.00 0.01 0.02 0.02 0.01 0.00 0.01 0.01 0.00 0.01 0.00 0.01 0.02 0.02 0.01 0.01 0.04 0.02 0.00 0.00 0.01 0.01 0.01 0.02 0.03 0.02 0.03 0.04 0.03 0.03 0.02 0.02 0.02 0.02 0.03 0.04 0.04 0.04 0.05 0.05 0.05 0.05 0.05
0.00 0.00 0.00 0.00 0.00 0.01 0.00 0.00 0.01 0.00 0.00 0.00 0.00 0.01 0.02 0.01 0.01 0.02 0.04 0.02 0.02 0.01 0.01 0.02 0.02 0.02 0.02 0.02 0.02 0.02 0.02 0.02 0.02 0.03 0.04 0.03 0.04 0.05 0.05 0.06 0.07 0.07 0.06 0.05
0.00 0.00 0.00 0.00 0.00 0.00 0.00 0.00 0.00 0.00 0.00 0.00 0.00 0.01 0.02 0.03 0.03 0.02 0.02 0.02 0.02 0.02 0.01 0.02 0.01 0.01 0.01 0.01 0.01 0.01 0.02 0.02 0.02 0.02 0.02 0.02 0.03 0.04 0.05 0.06 0.05 0.05 0.05 0.04
0.00 0.00 0.00 0.00 0.00 0.00 0.00 0.00 0.00 0.00 0.00 0.00 0.01 0.01 0.02 0.05 0.05 0.03 0.02 0.01 0.02 0.02 0.02 0.01 0.01 0.01 0.01 0.01 0.01 0.01 0.02 0.02 0.02 0.03 0.02 0.02 0.02 0.03 0.04 0.04 0.04 0.05 0.04 0.04
0.00 0.00 0.00 0.00 0.00 0.01 0.00 0.00 0.00 0.00 0.00 0.00 0.01 0.01 0.01 0.03 0.03 0.01 0.01 0.01 0.01 0.02 0.01 0.01 0.01 0.01 0.01 0.01 0.02 0.02 0.03 0.03 0.03 0.03 0.02 0.02 0.02 0.03 0.03 0.03 0.04 0.05 0.05 0.04
0.00 0.00 0.01 0.01 0.01 0.01 0.01 0.01 0.02 0.01 0.02 0.01 0.00 0.01 0.00 0.00 0.00 0.01 0.01 0.01 0.02 0.02 0.02 0.01 0.01 0.02 0.01 0.01 0.02 0.03 0.03 0.04 0.03 0.03 0.02 0.01 0.02 0.02 0.03 0.05 0.06 0.05 0.05 0.04
0.01 0.01 0.02 0.01 0.01 0.01 0.02 0.01 0.01 0.01 0.02 0.01 0.00 0.01 0.00 0.00 0.02 0.03 0.01 0.01 0.02 0.03 0.03 0.03 0.03 0.03 0.02 0.01 0.01 0.02 0.02 0.02 0.02 0.02 0.02 0.02 0.02 0.04 0.05 0.07 0.06 0.06 0.06 0.05
0.01 0.02 0.02 0.02 0.02 0.02 0.01 0.01 0.01 0.02 0.02 0.01 0.02 0.03 0.01 0.01 0.02 0.02 0.02 0.01 0.01 0.01 0.02 0.02 0.02 0.02 0.02 0.01 0.01 0.01 0.01 0.01 0.01 0.02 0.03 0.04 0.05 0.05 0.04 0.06 0.06 0.07 0.06 0.06
0.01 0.01 0.01 0.01 0.02 0.03 0.01 0.01 0.02 0.01 0.00 0.00 0.01 0.02 0.01 0.01 0.02 0.02 0.04 0.03 0.02 0.02 0.02 0.01 0.01 0.01 0.01 0.01 0.01 0.01 0.02 0.03 0.04 0.04 0.05 0.06 0.06 0.04 0.05 0.06 0.06 0.07 0.08 0.07
0.02 0.02 0.02 0.02 0.02 0.01 0.00 0.00 0.01 0.00 0.00 0.00 0.01 0.01 0.01 0.01 0.02 0.02 0.03 0.05 0.05 0.04 0.03 0.01 0.01 0.01 0.01 0.01 0.02 0.02 0.03 0.04 0.04 0.04 0.05 0.05 0.06 0.06 0.06 0.05 0.05 0.05 0.05 0.06
0.02 0.02 0.02 0.02 0.02 0.01 0.01 0.00 0.00 0.00 0.00 0.00 0.00 0.00 0.00 0.01 0.01 0.01 0.01 0.02 0.02 0.02 0.02 0.01 0.01 0.01 0.01 0.01 0.02 0.03 0.03 0.04 0.05 0.04 0.04 0.04 0.05 0.05 0.05 0.05 0.05 0.05 0.05 0.05
0.02 0.03 0.04 0.04 0.02 0.01 0.01 0.00 0.00 0.00 0.00 0.00 0.00 0.00 0.00 0.00 0.00 0.01 0.01 0.01 0.02 0.02 0.02 0.02 0.02 0.04 0.04 0.02 0.02 0.02 0.03 0.04 0.04 0.04 0.03 0.03 0.04 0.04 0.05 0.05 0.05 0.05 0.04 0.04
0.01 0.03 0.05 0.04 0.03 0.01 0.01 0.00 0.00 0.00 0.00 0.00 0.00 0.00 0.01 0.00 0.01 0.01 0.01 0.01 0.01 0.01 0.02 0.02 0.03 0.03 0.03 0.03 0.02 0.03 0.03 0.04 0.04 0.03 0.03 0.02 0.03 0.04 0.03 0.03 0.04 0.04 0.04 0.05
MSLP
1003.55 1003.86 1004.01 1004.00 1003.88 1003.70 1003.53 1003.43 1003.43 1003.55 1003.77 1004.08 1004.45 1004.88 1005.34 1005.83 1006.35 1006.88 1007.43 1007.98 1008.52 1009.04 1009.51 1009.95 1010.35 1010.73 1011.12 1011.53 1011.97 1012.46 1012.97 1013.48 1013.96 1014.38 1014.70 1014.90 1014.99 1014.97 1014.86 1014.68 1014.48 1014.28 1014.09 1013.92
1003.86 1004.05 1004.09 1003.99 1003.81 1003.61 1003.46 1003.40 1003.44 1003.59 1003.82 1004.10 1004.42 1004.76 1005.11 1005.48 1005.90 1006.37 1006.90 1007.47 1008.07 1008.67 1009.24 1009.77 1010.23 1010.65 1011.03 1011.41 1011.82 1012.25 1012.73 1013.21 1013.68 1014.10 1014.43 1014.65 1014.74 1014.70 1014.57 1014.36 1014.14 1013.92 1013.73 1013.59
1004.05 1004.12 1004.03 1003.84 1003.62 1003.44 1003.34 1003.36 1003.49 1003.70 1003.96 1004.23 1004.48 1004.69 1004.89 1005.10 1005.36 1005.72 1006.18 1006.74 1007.38 1008.07 1008.75 1009.39 1009.95 1010.44 1010.87 1011.26 1011.64 1012.03 1012.45 1012.90 1013.33 1013.73 1014.05 1014.26 1014.34 1014.30 1014.16 1013.96 1013.73 1013.53 1013.37 1013.28
1004.14 1004.06 1003.86 1003.61 1003.38 1003.24 1003.23 1003.37 1003.62 1003.93 1004.24 1004.49 1004.65 1004.72 1004.73 1004.73 1004.79 1004.97 1005.31 1005.81 1006.46 1007.21 1008.00 1008.77 1009.46 1010.05 1010.55 1010.97 1011.35 1011.72 1012.09 1012.48 1012.87 1013.23 1013.53 1013.73 1013.81 1013.78 1013.66 1013.49 1013.30 1013.13 1013.03 1013.00
1004.13 1003.94 1003.65 1003.36 1003.15 1003.08 1003.19 1003.47 1003.86 1004.29 1004.66 1004.90 1004.98 1004.89 1004.68 1004.43 1004.24 1004.19 1004.36 1004.75 1005.36 1006.14 1007.02 1007.90 1008.72 1009.44 1010.03 1010.51 1010.91 1011.26 1011.60 1011.95 1012.29 1012.61 1012.88 1013.08 1013.18 1013.18 1013.10 1012.97 1012.84 1012.74 1012.70 1012.74
1004.08 1003.79 1003.45 1003.15 1002.98 1003.01 1003.25 1003.69 1004.23 1004.77 1005.21 1005.44 1005.44 1005.19 1004.76 1004.25 1003.78 1003.47 1003.41 1003.65 1004.17 1004.93 1005.85 1006.82 1007.76 1008.59 1009.28 1009.84 1010.28 1010.64 1010.96 1011.27 1011.58 1011.88 1012.14 1012.35 1012.48 1012.52 1012.50 1012.44 1012.37 1012.34 1012.36 1012.46
1004.03 1003.69 1003.32 1003.03 1002.92 1003.05 1003.42 1004.00 1004.67 1005.33 1005.83 1006.06 1005.99 1005.60 1004.96 1004.20 1003.46 1002.88 1002.58 1002.62 1003.01 1003.70 1004.61 1005.63 1006.64 1007.56 1008.34 1008.97 1009.46 1009.84 1010.17 1010.48 1010.78 1011.07 1011.35 1011.58 1011.75 1011.86 1011.89 1011.90 1011.89 1011.91 1011.97 1012.10
1004.03 1003.67 1003.30 1003.04 1002.99 1003.20 1003.67 1004.36 1005.14 1005.88 1006.43 1006.68 1006.56 1006.06 1005.27 1004.30 1003.32 1002.50 1001.96 1001.79 1002.01 1002.59 1003.44 1004.43 1005.47 1006.43 1007.27 1007.95 1008.49 1008.92 1009.27 1009.59 1009.91 1010.23 1010.54 1010.82 1011.04 1011.21 1011.30 1011.36 1011.39 1011.43 1011.52 1011.65
1004.12 1003.77 1003.42 1003.19 1003.17 1003.43 1003.96 1004.71 1005.55 1006.35 1006.94 1007.21 1007.07 1006.52 1005.63 1004.53 1003.39 1002.37 1001.63 1001.27 1001.31 1001.73 1002.46 1003.38 1004.36 1005.31 1006.16 1006.86 1007.43 1007.89 1008.28 1008.65 1009.01 1009.38 1009.74 1010.08 1010.37 1010.59 1010.74 1010.82 1010.87 1010.92 1010.99 1011.10
1004.33 1004.00 1003.68 1003.47 1003.46 1003.72 1004.25 1005.00 1005.85 1006.66 1007.27 1007.56 1007.44 1006.90 1006.00 1004.86 1003.65 1002.53 1001.65 1001.12 1000.99 1001.24 1001.80 1002.58 1003.45 1004.31 1005.10 1005.77 1006.33 1006.80 1007.23 1007.64 1008.06 1008.50 1008.94 1009.36 1009.72 1010.00 1010.18 1010.29 1010.34 1010.37 1010.40 1010.48
1004.67 1004.38 1004.08 1003.87 1003.83 1004.04 1004.51 1005.19 1005.99 1006.76 1007.37 1007.68 1007.62 1007.16 1006.33 1005.26 1004.08 1002.95 1002.02 1001.39 1001.12 1001.18 1001.55 1002.12 1002.80 1003.50 1004.16 1004.73 1005.24 1005.68 1006.12 1006.56 1007.04 1007.56 1008.08 1008.58 1009.02 1009.36 1009.60 1009.73 1009.78 1009.78 1009.79 1009.82
1005.12 1004.89 1004.61 1004.37 1004.28 1004.39 1004.74 1005.30 1005.98 1006.68 1007.26 1007.60 1007.61 1007.27 1006.60 1005.68 1004.64 1003.60 1002.70 1002.04 1001.65 1001.55 1001.70 1002.04 1002.47 1002.93 1003.38 1003.78 1004.16 1004.53 1004.93 1005.38 1005.90 1006.48 1007.09 1007.68 1008.21 1008.63 1008.92 1009.10 1009.16 1009.17 1009.16 1009.19
1005.66 1005.48 1005.22 1004.96 1004.79 1004.78 1004.97 1005.36 1005.89 1006.48 1007.00 1007.35 1007.45 1007.27 1006.80 1006.10 1005.27 1004.41 1003.61 1002.97 1002.52 1002.28 1002.22 1002.28 1002.42 1002.59 1002.77 1002.93 1003.12 1003.35 1003.66 1004.08 1004.61 1005.23 1005.91 1006.58 1007.21 1007.72 1008.10 1008.35 1008.47 1008.52 1008.55 1008.60
1006.26 1006.14 1005.90 1005.61 1005.36 1005.22 1005.24 1005.44 1005.80 1006.23 1006.67 1007.02 1007.21 1007.18 1006.94 1006.50 1005.93 1005.29 1004.66 1004.09 1003.62 1003.26 1003.00 1002.80 1002.63 1002.47 1002.32 1002.20 1002.13 1002.16 1002.33 1002.67 1003.16 1003.79 1004.51 1005.26 1005.98 1006.60 1007.10 1007.45 1007.68 1007.82 1007.93 1008.05
1006.87 1006.81 1006.60 1006.29 1005.98 1005.72 1005.59 1005.60 1005.77 1006.05 1006.39 1006.71 1006.95 1007.07 1007.04 1006.86 1006.55 1006.16 1005.72 1005.27 1004.82 1004.38 1003.94 1003.49 1003.02 1002.53 1002.05 1001.61 1001.26 1001.04 1001.02 1001.22 1001.63 1002.23 1002.96 1003.77 1004.57 1005.31 1005.93 1006.42 1006.79 1007.07 1007.31 1007.55
1007.43 1007.43 1007.26 1006.97 1006.62 1006.29 1006.03 1005.89 1005.88 1006.01 1006.23 1006.50 1006.77 1006.99 1007.13 1007.17 1007.10 1006.95 1006.70 1006.38 1005.98 1005.50 1004.93 1004.28 1003.55 1002.76 1001.97 1001.21 1000.57 1000.09 999.85 999.88 1000.16 1000.68 1001.39 1002.22 1003.09 1003.92 1004.68 1005.32 1005.85 1006.30 1006.69 1007.08
1007.89 1007.95 1007.84 1007.59 1007.25 1006.88 1006.54 1006.29 1006.15 1006.13 1006.24 1006.43 1006.68 1006.96 1007.21 1007.41 1007.55 1007.59 1007.52 1007.33 1007.00 1006.53 1005.89 1005.10 1004.17 1003.15 1002.09 1001.07 1000.16 999.44 998.98 998.82 998.95 999.36 1000.01 1000.81 1001.71 1002.62 1003.48 1004.27 1004.96 1005.57 1006.13 1006.66
1008.20 1008.32 1008.27 1008.09 1007.80 1007.45 1007.09 1006.77 1006.54 1006.42 1006.41 1006.52 1006.72 1006.99 1007.29 1007.59 1007.85 1008.04 1008.12 1008.05 1007.82 1007.38 1006.74 1005.89 1004.86 1003.70 1002.48 1001.27 1000.16 999.24 998.59 998.24 998.21 998.49 999.04 999.78 1000.66 1001.60 1002.53 1003.41 1004.23 1004.98 1005.67 1006.33
1008.33 1008.48 1008.51 1008.41 1008.20 1007.92 1007.59 1007.27 1006.99 1006.80 1006.70 1006.72 1006.85 1007.07 1007.36 1007.69 1008.01 1008.29 1008.48 1008.52 1008.38 1008.03 1007.44 1006.62 1005.59 1004.41 1003.12 1001.83 1000.62 999.58 998.79 998.29 998.12 998.26 998.68 999.33 1000.14 1001.04 1001.99 1002.91 1003.80 1004.63 1005.41 1006.14
1008.28 1008.44 1008.53 1008.52 1008.41 1008.22 1007.96 1007.68 1007.41 1007.18 1007.02 1006.96 1007.01 1007.15 1007.39 1007.70 1008.04 1008.36 1008.61 1008.75 1008.71 1008.47 1008.00 1007.28 1006.35 1005.23 1004.01 1002.74 1001.53 1000.46 999.60 999.01 998.72 998.73 999.02 999.54 1000.25 1001.07 1001.96 1002.86 1003.75 1004.59 1005.39 1006.14
1008.05 1008.21 1008.34 1008.40 1008.39 1008.30 1008.15 1007.94 1007.71 1007.48 1007.29 1007.17 1007.14 1007.21 1007.38 1007.63 1007.94 1008.27 1008.56 1008.77 1008.84 1008.73 1008.41 1007.85 1007.08 1006.14 1005.06 1003.92 1002.81 1001.79 1000.94 1000.32 999.96 999.87 1000.03 1000.42 1000.99 1001.69 1002.47 1003.28 1004.10 1004.89 1005.65 1006.36
1007.72 1007.84 1007.97 1008.09 1008.16 1008.17 1008.11 1007.99 1007.82 1007.63 1007.44 1007.29 1007.21 1007.21 1007.30 1007.50 1007.76 1008.07 1008.38 1008.65 1008.81 1008.84 1008.68 1008.32 1007.77 1007.04 1006.18 1005.24 1004.29 1003.41 1002.64 1002.05 1001.67 1001.51 1001.57 1001.82 1002.24 1002.79 1003.42 1004.10 1004.79 1005.48 1006.15 1006.78
1007.33 1007.39 1007.50 1007.63 1007.75 1007.83 1007.86 1007.83 1007.73 1007.59 1007.43 1007.28 1007.17 1007.13 1007.18 1007.32 1007.55 1007.83 1008.15 1008.45 1008.70 1008.84 1008.84 1008.68 1008.35 1007.86 1007.24 1006.54 1005.80 1005.09 1004.46 1003.94 1003.58 1003.39 1003.37 1003.52 1003.79 1004.18 1004.65 1005.17 1005.71 1006.26 1006.80 1007.32
1006.97 1006.94 1007.00 1007.11 1007.24 1007.36 1007.45 1007.48 1007.45 1007.37 1007.26 1007.14 1007.04 1007.00 1007.02 1007.14 1007.34 1007.61 1007.93 1008.26 1008.56 1008.80 1008.93 1008.93 1008.80 1008.53 1008.14 1007.67 1007.15 1006.63 1006.15 1005.74 1005.43 1005.24 1005.18 1005.23 1005.39 1005.63 1005.94 1006.30 1006.68 1007.09 1007.49 1007.89
1006.67 1006.56 1006.54 1006.60 1006.70 1006.82 1006.93 1007.00 1007.03 1007.01 1006.96 1006.89 1006.83 1006.81 1006.86 1006.98 1007.18 1007.45 1007.77 1008.12 1008.46 1008.76 1008.98 1009.10 1009.11 1009.01 1008.81 1008.53 1008.20 1007.85 1007.51 1007.21 1006.97 1006.81 1006.72 1006.72 1006.78 1006.91 1007.08 1007.29 1007.54 1007.80 1008.08 1008.37
1006.47 1006.27 1006.16 1006.15 1006.20 1006.28 1006.38 1006.47 1006.53 1006.56 1006.56 1006.56 1006.57 1006.61 1006.71 1006.87 1007.10 1007.40 1007.73 1008.09 1008.45 1008.77 1009.04 1009.22 1009.31 1009.32 1009.24 1009.09 1008.89 1008.67 1008.44 1008.23 1008.06 1007.93 1007.84 1007.80 1007.80 1007.84 1007.92 1008.02 1008.15 1008.31 1008.48 1008.68
Thickness
5863 5849 5839 5845 5854 5854 5852 5845 5840 5851 5868 5858 5847 5842 5848 5853 5850 5844 5840 5836 5833 5832 5834 5834 5832 5830 5826 5822 5817 5813 5809 5806 5804 5800 5797 5794 5792 5793 5793 5793 5791 5789 5788 5786
5849 5843 5858 5867 5864 5861 5854 5844 5843 5855 5867 5858 5847 5843 5850 5852 5849 5848 5843 5839 5835 5832 5831 5831 5830 5828 5824 5820 5816 5812 5809 5806 5804 5802 5800 5798 5796 5795 5794 5794 5792 5790 5788 5786
5839 5852 5872 5866 5859 5852 5853 5848 5848 5848 5857 5862 5848 5834 5839 5849 5853 5852 5849 5846 5841 5835 5830 5827 5826 5825 5824 5819 5815 5812 5808 5806 5804 5803 5801 5798 5795 5793 5792 5790 5789 5790 5789 5787
5850 5864 5865 5859 5856 5855 5845 5862 5859 5855 5842 5834 5840 5810 5826 5839 5840 5844 5844 5844 5841 5839 5834 5828 5823 5821 5822 5820 5816 5813 5809 5805 5803 5801 5798 5794 5790 5787 5789 5789 5789 5789 5788 5787
5849 5862 5858 5850 5856 5861 5854 5869 5863 5858 5843 5833 5836 5818 5818 5838 5830 5835 5841 5843 5843 5841 5837 5831 5827 5823 5823 5821 5817 5813 5808 5804 5802 5800 5797 5794 5791 5790 5790 5790 5788 5787 5787 5786
5857 5871 5868 5862 5869 5870 5868 5863 5860 5858 5844 5816 5830 5822 5812 5831 5835 5839 5842 5844 5844 5842 5838 5834 5830 5826 5823 5821 5817 5812 5806 5802 5800 5798 5796 5793 5790 5788 5786 5785 5783 5784 5784 5784
5842 5856 5871 5873 5858 5863 5860 5840 5818 5812 5807 5808 5836 5823 5819 5843 5851 5849 5844 5842 5843 5841 5837 5832 5828 5824 5820 5818 5814 5810 5804 5799 5798 5797 5794 5793 5790 5788 5785 5782 5781 5780 5780 5779
5824 5829 5856 5865 5856 5845 5848 5841 5811 5793 5798 5811 5826 5811 5825 5853 5858 5856 5852 5847 5844 5840 5836 5832 5828 5824 5820 5816 5813 5809 5802 5798 5796 5795 5793 5792 5790 5787 5785 5782 5780 5779 5778 5778
5824 5827 5858 5865 5869 5858 5841 5840 5851 5829 5822 5813 5815 5819 5830 5849 5848 5847 5844 5843 5839 5838 5835 5832 5829 5824 5820 5816 5813 5809 5803 5798 5795 5794 5791 5789 5788 5785 5783 5781 5779 5777 5776 5776
5838 5820 5843 5858 5862 5862 5854 5847 5839 5822 5799 5796 5807 5811 5810 5823 5830 5836 5835 5834 5836 5836 5834 5831 5828 5824 5821 5817 5813 5810 5804 5798 5795 5792 5790 5788 5785 5783 5781 5779 5775 5773 5772 5771
5845 5822 5828 5843 5836 5835 5842 5839 5833 5826 5820 5799 5790 5798 5830 5827 5830 5832 5833 5833 5833 5832 5830 5827 5825 5823 5819 5816 5812 5807 5803 5798 5794 5791 5789 5785 5783 5781 5778 5775 5773 5770 5768 5766
5840 5827 5814 5829 5849 5854 5846 5837 5830 5810 5804 5809 5797 5794 5836 5835 5835 5833 5832 5831 5829 5829 5828 5826 5822 5819 5814 5810 5807 5803 5800 5796 5793 5789 5786 5782 5780 5778 5774 5771 5769 5767 5764 5762
5830 5814 5795 5804 5820 5833 5830 5834 5834 5828 5816 5808 5794 5791 5832 5830 5830 5830 5829 5827 5824 5822 5821 5819 5815 5811 5807 5804 5800 5798 5795 5793 5791 5787 5783 5778 5775 5772 5769 5766 5764 5762 5759 5756
5826 5810 5795 5785 5799 5815 5815 5822 5827 5819 5804 5802 5802 5800 5815 5819 5819 5820 5822 5821 5819 5816 5812 5810 5806 5803 5801 5798 5795 5792 5790 5788 5786 5782 5777 5773 5770 5766 5764 5761 5759 5756 5753 5750
5822 5803 5803 5808 5816 5819 5814 5815 5819 5816 5812 5803 5805 5805 5811 5815 5815 5816 5816 5814 5810 5806 5803 5800 5797 5794 5793 5791 5788 5786 5784 5782 5779 5775 5770 5767 5765 5762 5758 5755 5752 5749 5746 5744
5812 5796 5797 5797 5808 5812 5810 5816 5819 5816 5816 5812 5810 5803 5816 5816 5814 5809 5807 5806 5800 5797 5795 5792 5790 5787 5785 5783 5781 5779 5777 5775 5773 5768 5764 5762 5758 5754 5751 5748 5745 5741 5738 5736
5799 5789 5778 5779 5798 5798 5790 5807 5809 5808 5811 5807 5796 5798 5808 5801 5799 5798 5798 5796 5793 5790 5788 5785 5782 5780 5778 5777 5776 5772 5771 5769 5765 5761 5758 5755 5752 5748 5744 5742 5738 5734 5730 5728
5787 5778 5776 5776 5777 5757 5789 5817 5813 5805 5805 5807 5803 5802 5801 5799 5800 5801 5799 5792 5787 5784 5781 5779 5777 5775 5774 5773 5770 5768 5766 5762 5758 5754 5751 5748 5745 5741 5738 5734 5730 5727 5724 5720
5791 5774 5765 5764 5760 5769 5786 5800 5800 5790 5785 5799 5793 5792 5795 5797 5793 5788 5790 5788 5784 5781 5778 5775 5773 5769 5766 5764 5762 5759 5757 5754 5750 5746 5743 5741 5738 5734 5730 5726 5723 5721 5717 5714
5785 5776 5760 5756 5747 5747 5769 5794 5805 5791 5770 5789 5789 5783 5784 5783 5766 5767 5779 5780 5777 5775 5772 5769 5766 5761 5756 5754 5753 5749 5747 5745 5742 5739 5737 5735 5732 5728 5724 5721 5717 5715 5711 5708
5759 5756 5751 5747 5744 5754 5777 5790 5791 5759 5755 5778 5781 5778 5776 5769 5765 5768 5772 5769 5767 5765 5762 5760 5756 5752 5749 5747 5744 5739 5737 5735 5734 5733 5730 5727 5725 5722 5720 5716 5712 5708 5705 5701
5751 5746 5745 5745 5736 5740 5774 5777 5762 5757 5771 5773 5772 5772 5770 5767 5766 5764 5760 5757 5755 5753 5752 5750 5745 5742 5742 5740 5735 5730 5727 5727 5726 5724 5720 5718 5716 5715 5714 5709 5705 5702 5699 5695
5753 5750 5747 5743 5743 5758 5768 5765 5767 5769 5765 5766 5766 5767 5764 5760 5756 5754 5750 5748 5745 5743 5741 5740 5737 5734 5733 5731 5727 5720 5719 5719 5717 5714 5711 5710 5709 5707 5705 5701 5698 5695 5692 5688
5751 5756 5747 5739 5747 5754 5758 5761 5763 5764 5760 5761 5762 5760 5758 5751 5748 5745 5741 5738 5736 5734 5732 5731 5729 5724 5721 5720 5718 5714 5712 5710 5707 5704 5703 5702 5701 5699 5697 5694 5692 5688 5684 5680
5738 5739 5733 5729 5736 5744 5748 5751 5754 5755 5755 5754 5752 5752 5748 5743 5739 5737 5732 5729 5727 5725 5724 5722 5718 5714 5712 5711 5708 5706 5704 5702 5698 5696 5695 5694 5693 5691 5688 5685 5682 5680 5676 5673
5735 5731 5723 5719 5730 5731 5736 5744 5747 5743 5741 5742 5741 5739 5739 5736 5731 5729 5725 5723 5721 5718 5716 5712 5709 5706 5704 5702 5699 5698 5696 5693 5690 5687 5686 5686 5685 5683 5681 5678 5674 5671 5668 5665